Wind_Speed
20 19 19 20 20 20 19 17 16 14 14 14 15 16 16 16 16 16 16 17 18 19 20 22 23 24 25 26 28 29 30 31 31 31 30 30 30 29 29 30 31 31
21 21 21 22 21 20 18 16 15 14 14 15 16 16 16 15 16 16 16 17 19 21 23 24 26 26 27 28 30 31 32 33 34 35 34 33 31 31 31 32 33 32
22 22 22 22 21 20 18 15 14 14 14 15 15 15 15 16 17 17 17 18 21 23 24 26 26 27 28 29 30 30 30 32 34 36 37 36 34 33 33 34 34 33
21 21 21 20 20 18 17 15 14 15 15 14 14 14 16 17 18 18 19 20 21 23 24 25 26 27 29 30 29 28 28 31 33 35 35 35 35 34 34 34 33 31
18 18 17 17 16 16 15 15 15 14 13 13 14 15 17 19 19 20 20 21 21 22 23 24 25 27 29 30 29 29 29 31 33 34 34 32 32 33 33 34 31 28
14 14 14 14 14 14 14 14 14 13 12 13 15 17 18 18 19 19 20 21 22 22 23 24 26 27 29 30 30 31 32 34 35 34 33 30 29 29 31 32 29 26
12 12 13 13 12 13 13 13 12 13 14 15 17 17 17 16 17 18 19 21 23 25 25 27 28 28 28 29 31 33 34 35 37 37 34 30 28 29 31 31 28 25
12 12 12 12 11 12 12 12 13 15 16 17 16 15 15 16 18 19 20 23 25 26 27 28 29 29 30 30 31 34 35 36 39 39 35 32 30 31 32 31 28 26
12 11 11 11 11 12 13 13 15 16 17 17 15 14 15 17 19 21 22 24 26 27 28 29 30 30 32 32 33 34 35 37 39 39 37 34 33 32 32 30 27 26
10 10 11 11 11 13 15 15 16 16 17 17 16 16 17 18 20 22 24 25 27 28 29 30 30 30 32 33 33 34 36 39 41 40 38 37 36 34 31 29 27 28
10 10 11 12 13 15 16 15 14 14 15 17 18 19 18 19 20 23 25 26 27 28 30 32 32 31 33 34 34 35 37 39 40 40 38 38 37 34 31 28 28 29
10 11 12 14 15 15 14 13 12 12 15 18 20 21 21 21 23 25 27 28 28 30 31 33 34 34 35 35 36 36 36 37 38 38 37 37 36 34 31 29 29 30
12 12 13 14 14 13 12 12 13 14 16 18 19 21 23 24 25 26 28 30 31 32 33 35 36 36 37 37 38 37 36 36 36 36 36 36 35 33 30 29 30 31
13 13 13 13 13 13 13 14 16 17 17 17 18 20 23 25 26 26 28 32 34 35 36 37 37 38 39 39 39 39 37 37 36 35 36 37 35 33 31 30 31 32
13 12 12 13 13 13 14 15 16 17 17 18 18 20 23 25 26 27 29 31 34 37 39 39 39 40 41 41 40 39 39 38 37 36 37 38 36 33 31 32 33 33
13 13 13 13 13 13 14 14 15 16 18 20 21 22 25 28 29 30 30 31 34 37 41 41 42 43 44 42 40 40 40 38 37 37 37 38 38 35 33 34 36 35
13 13 13 13 13 12 13 14 16 19 22 24 26 27 29 32 34 34 33 34 36 38 41 43 44 45 47 44 41 40 40 37 37 37 36 38 39 37 36 38 37 37
15 15 15 14 14 13 15 18 20 23 25 27 29 31 33 35 37 37 37 38 39 40 43 45 45 47 48 47 43 40 38 37 37 36 36 38 39 37 38 39 37 38
19 18 17 16 16 16 18 20 22 24 26 28 31 33 35 37 39 40 41 42 43 44 46 48 48 48 48 47 43 39 37 36 36 35 35 37 38 38 39 39 38 39
22 22 21 20 19 20 21 22 24 26 28 30 32 35 37 39 41 42 44 45 46 47 49 49 49 48 47 45 41 37 35 36 35 34 34 36 38 38 39 39 40 41
21 23 23 23 22 22 24 24 26 28 30 31 34 36 38 41 43 45 47 48 49 50 51 51 50 48 44 40 36 34 34 35 35 34 34 36 38 38 38 39 40 41
20 22 23 24 24 25 26 27 29 30 32 34 36 37 40 42 45 48 50 50 51 53 53 52 50 47 42 37 34 33 33 34 34 33 34 36 39 39 39 39 40 42
22 23 24 26 27 28 29 30 31 33 34 36 38 40 42 44 47 50 51 52 53 54 54 53 51 47 41 37 34 34 34 34 34 34 34 36 38 39 39 39 40 41
26 27 28 29 31 32 33 33 34 35 36 37 39 42 44 46 48 51 52 53 55 55 55 54 52 46 42 39 37 36 36 35 34 35 35 35 37 38 38 38 38 40
30 31 32 34 35 36 37 37 37 38 38 38 40 43 45 46 49 51 52 53 55 55 54 53 49 44 42 40 38 37 37 36 35 35 35 35 36 37 37 37 37 40
33 34 37 39 40 40 41 40 39 39 39 40 42 44 46 47 50 52 52 52 53 53 52 49 45 42 42 41 38 37 37 36 36 35 35 36 36 36 37 36 38 42
Wind_Direction
260 263 269 275 279 281 283 286 288 287 287 289 293 297 300 306 312 318 322 324 326 324 321 318 318 319 319 318 317 315 315 314 311 307 303 300 300 300 298 292 287 285
259 263 269 274 278 280 283 288 288 285 285 289 294 299 304 310 316 320 323 324 324 322 320 319 319 319 318 316 314 315 315 314 313 310 305 300 297 296 296 292 285 281
260 264 269 273 276 280 284 287 285 283 287 292 297 303 307 311 316 320 321 321 321 320 319 319 319 318 316 313 312 313 315 316 316 314 308 301 296 295 296 294 286 279
262 266 270 274 278 281 284 284 282 284 289 295 299 302 305 310 315 318 319 320 321 321 319 319 319 319 316 312 310 311 314 318 319 319 315 305 296 295 298 299 291 279
267 272 275 278 280 281 282 281 282 285 290 295 298 301 305 310 314 317 320 322 322 322 320 320 319 317 314 312 311 312 313 315 317 321 323 315 302 297 298 301 296 281
272 276 278 280 281 281 280 282 284 286 291 294 298 303 308 311 314 319 321 321 321 321 320 319 317 315 314 314 314 314 313 313 313 318 323 322 314 306 302 304 299 284
271 275 280 283 283 281 281 283 287 290 292 296 300 305 310 313 316 319 320 319 318 319 319 318 318 317 315 315 315 315 314 312 311 314 319 321 319 314 310 307 301 289
270 277 281 282 282 281 282 286 291 294 295 297 302 306 311 315 316 318 319 317 317 318 317 316 317 316 313 312 312 312 312 311 310 313 316 316 315 313 310 305 299 293
272 278 278 279 282 283 286 291 295 296 296 298 301 306 310 314 316 317 317 316 316 316 315 313 314 314 312 310 309 309 311 310 310 313 315 314 312 312 309 303 296 293
273 275 275 279 283 285 289 293 294 294 296 299 302 305 308 312 315 317 317 316 315 313 311 310 310 311 309 307 306 308 310 309 308 312 315 314 312 311 311 304 296 294
272 274 278 281 284 286 288 288 289 293 299 302 304 305 307 310 314 318 319 319 318 315 311 308 308 308 307 308 307 307 307 306 305 310 315 314 311 311 311 304 296 295
276 277 279 281 282 282 281 282 286 294 301 303 304 306 306 308 312 317 319 320 321 320 315 312 311 309 308 309 309 307 306 304 304 308 312 313 311 309 309 305 300 298
274 275 276 277 276 275 275 281 288 293 299 301 303 305 306 308 312 316 319 318 318 319 318 317 317 314 310 307 306 307 307 304 304 307 309 311 311 307 306 307 306 303
268 269 272 270 270 273 276 282 289 293 296 300 302 304 307 310 313 317 319 318 317 317 316 316 317 317 312 307 305 308 308 304 303 305 305 308 309 306 303 304 306 306
264 266 266 265 267 273 278 282 289 295 300 304 306 308 311 312 313 316 317 317 317 316 314 314 315 315 313 309 307 306 304 302 302 303 303 305 306 305 303 302 304 307
259 260 258 259 263 269 277 284 292 300 306 308 310 312 314 313 313 316 316 315 315 314 313 314 315 315 314 311 305 301 299 300 301 301 303 305 305 306 305 303 302 303
248 251 253 255 259 266 278 289 296 303 307 308 311 313 314 314 315 317 317 316 316 315 314 315 317 316 314 310 304 299 297 297 298 301 305 306 305 306 305 302 298 299
242 248 252 255 260 272 284 292 297 302 305 308 311 312 313 314 316 316 315 315 316 315 315 316 317 316 313 309 304 300 297 296 297 300 304 304 303 303 303 301 298 299
244 252 257 258 268 282 291 295 299 301 305 308 310 311 312 313 314 314 313 314 315 314 314 315 316 315 311 306 302 300 298 296 295 298 301 302 301 300 300 300 298 299
250 257 261 263 274 288 295 299 301 302 305 307 308 310 311 311 311 311 311 311 313 314 314 314 316 315 310 303 300 300 298 295 295 298 299 298 297 297 298 297 296 297
257 262 265 269 279 291 297 301 302 302 303 304 305 307 308 308 309 308 309 309 310 312 313 313 315 314 308 301 299 298 297 295 295 296 295 294 294 295 295 295 295 297
269 272 274 278 284 291 296 298 298 299 300 300 302 304 305 306 307 307 307 308 309 310 309 310 314 313 306 300 298 296 293 292 292 292 291 292 293 293 292 292 294 296
275 278 281 282 285 288 290 292 293 295 296 297 300 302 302 304 306 306 307 308 308 308 307 308 311 309 302 297 297 294 292 291 291 290 290 291 291 291 291 292 294 295
273 276 278 279 281 282 284 286 288 290 292 295 298 299 299 301 304 305 306 307 306 306 306 308 309 305 299 297 297 296 294 293 291 290 289 289 289 290 291 292 293 293
271 274 276 277 278 280 281 282 284 287 290 293 295 296 297 299 302 303 304 304 304 305 306 308 307 302 298 297 296 295 293 291 290 289 289 289 289 290 291 291 292 291
271 273 275 277 278 278 276 277 282 288 290 292 293 294 296 299 300 300 300 301 302 305 308 308 305 300 297 297 296 293 291 291 290 289 289 289 288 289 290 291 291 289
Height
5911 5911 5911 5912 5912 5912 5913 5913 5914 5914 5914 5914 5914 5913 5913 5912 5911 5911 5910 5909 5908 5907 5905 5904 5903 5902 5900 5898 5897 5896 5895 5894 5893 5892 5891 5890 5889 5888 5887 5886 5885 5884
5908 5909 5909 5909 5910 5910 5911 5912 5912 5912 5913 5912 5912 5911 5910 5910 5909 5909 5908 5907 5906 5905 5903 5902 5900 5899 5898 5896 5894 5893 5892 5891 5890 5888 5887 5886 5885 5884 5883 5882 5881 5880
5906 5906 5907 5907 5907 5908 5909 5910 5910 5911 5911 5910 5910 5909 5908 5907 5907 5906 5906 5905 5904 5903 5901 5899 5898 5897 5896 5894 5892 5891 5890 5888 5886 5885 5883 5881 5880 5879 5879 5878 5877 5876
5904 5904 5904 5905 5905 5906 5907 5908 5908 5908 5909 5908 5908 5907 5906 5905 5905 5904 5904 5903 5902 5901 5899 5898 5896 5895 5894 5892 5890 5889 5888 5886 5884 5881 5879 5876 5875 5875 5874 5874 5873 5872
5902 5902 5902 5903 5904 5905 5905 5906 5906 5906 5907 5906 5906 5905 5904 5903 5902 5902 5901 5901 5900 5899 5897 5896 5894 5893 5891 5889 5888 5887 5885 5883 5881 5878 5875 5873 5872 5871 5871 5870 5869 5868
5900 5900 5901 5901 5902 5903 5903 5904 5904 5904 5904 5904 5903 5903 5902 5901 5901 5900 5899 5898 5898 5897 5895 5894 5892 5891 5889 5887 5886 5884 5882 5880 5877 5874 5872 5871 5870 5869 5868 5867 5866 5865
5898 5899 5899 5900 5900 5901 5901 5902 5902 5902 5902 5902 5901 5901 5900 5900 5899 5898 5898 5896 5895 5894 5893 5891 5890 5889 5887 5885 5884 5882 5880 5877 5874 5871 5870 5869 5868 5866 5865 5864 5863 5863
5897 5897 5897 5898 5898 5899 5899 5900 5900 5900 5899 5899 5899 5899 5898 5897 5897 5896 5896 5894 5893 5892 5890 5889 5887 5886 5885 5883 5881 5879 5877 5875 5871 5869 5868 5867 5866 5864 5863 5861 5860 5859
5895 5895 5896 5896 5897 5897 5897 5898 5898 5897 5897 5897 5897 5897 5896 5895 5894 5894 5893 5892 5891 5889 5888 5886 5885 5883 5882 5880 5879 5876 5874 5872 5869 5866 5866 5865 5863 5861 5859 5858 5857 5857
5893 5893 5894 5894 5895 5895 5895 5896 5896 5895 5894 5894 5894 5895 5894 5893 5892 5891 5890 5889 5888 5887 5885 5883 5882 5881 5879 5877 5876 5874 5871 5869 5866 5864 5862 5861 5860 5858 5856 5855 5855 5854
5891 5891 5892 5892 5893 5893 5893 5893 5894 5893 5892 5891 5891 5891 5892 5891 5890 5889 5888 5887 5885 5884 5882 5880 5879 5878 5876 5874 5873 5871 5869 5866 5864 5861 5860 5858 5857 5855 5853 5852 5852 5851
5888 5889 5889 5890 5891 5891 5891 5891 5891 5891 5891 5889 5888 5888 5888 5889 5888 5886 5885 5883 5882 5881 5879 5877 5876 5874 5873 5871 5869 5867 5865 5863 5861 5859 5857 5855 5854 5852 5851 5849 5849 5848
5886 5887 5887 5888 5888 5889 5889 5889 5889 5889 5889 5888 5887 5885 5885 5885 5885 5884 5882 5880 5879 5878 5876 5874 5873 5871 5869 5867 5865 5863 5861 5859 5858 5856 5854 5853 5851 5850 5848 5847 5846 5845
5884 5885 5885 5886 5886 5886 5886 5886 5886 5886 5886 5886 5885 5884 5883 5882 5882 5881 5880 5878 5876 5874 5873 5871 5869 5868 5865 5863 5861 5860 5858 5856 5854 5853 5851 5849 5848 5847 5845 5844 5843 5841
5882 5883 5883 5883 5884 5884 5884 5884 5884 5883 5883 5883 5883 5882 5881 5880 5880 5879 5878 5876 5874 5871 5869 5868 5866 5864 5862 5860 5858 5857 5855 5853 5851 5849 5847 5845 5844 5843 5842 5841 5839 5838
5880 5880 5881 5881 5882 5882 5882 5881 5881 5881 5880 5880 5879 5879 5878 5877 5876 5876 5876 5874 5872 5869 5866 5864 5863 5861 5858 5856 5854 5852 5851 5850 5848 5845 5843 5842 5841 5840 5839 5838 5836 5834
5878 5878 5879 5879 5880 5880 5880 5879 5878 5878 5877 5876 5876 5875 5874 5873 5872 5872 5872 5871 5870 5867 5863 5861 5860 5857 5854 5852 5849 5847 5846 5846 5844 5842 5840 5839 5837 5836 5835 5834 5832 5831
5875 5876 5876 5877 5877 5877 5877 5877 5876 5875 5874 5873 5872 5871 5871 5870 5868 5868 5867 5867 5866 5864 5860 5858 5856 5854 5850 5847 5845 5844 5843 5842 5840 5838 5837 5836 5835 5833 5832 5831 5829 5827
5873 5873 5874 5874 5874 5874 5874 5874 5873 5872 5871 5870 5869 5868 5867 5866 5865 5863 5862 5861 5860 5859 5856 5854 5852 5850 5846 5843 5841 5840 5839 5838 5837 5836 5835 5833 5831 5829 5828 5827 5825 5823
5870 5871 5871 5871 5871 5871 5871 5871 5870 5869 5868 5867 5866 5865 5864 5862 5861 5860 5858 5856 5855 5854 5852 5849 5848 5846 5842 5839 5837 5836 5835 5834 5833 5832 5831 5829 5827 5826 5824 5822 5821 5819
5867 5867 5867 5868 5868 5868 5867 5867 5867 5866 5865 5864 5862 5861 5860 5858 5857 5855 5854 5852 5851 5849 5847 5845 5844 5842 5838 5835 5834 5833 5831 5830 5829 5828 5827 5824 5823 5822 5821 5818 5816 5815
5864 5864 5864 5864 5864 5864 5863 5863 5863 5862 5861 5860 5859 5857 5856 5855 5853 5851 5850 5848 5846 5845 5843 5841 5839 5837 5834 5832 5830 5829 5827 5826 5825 5824 5823 5821 5819 5818 5816 5814 5812 5811
5860 5860 5860 5860 5860 5860 5859 5859 5858 5858 5857 5856 5855 5853 5852 5851 5849 5847 5845 5843 5842 5840 5838 5836 5835 5833 5830 5828 5827 5826 5824 5823 5822 5820 5819 5818 5815 5813 5812 5810 5809 5807
5855 5855 5855 5855 5855 5855 5855 5855 5854 5854 5853 5852 5850 5849 5847 5846 5845 5843 5841 5839 5837 5835 5833 5831 5829 5827 5826 5825 5824 5822 5820 5819 5818 5817 5815 5814 5811 5809 5808 5806 5805 5803
5851 5851 5851 5850 5851 5851 5851 5851 5850 5849 5849 5847 5846 5844 5843 5842 5840 5838 5837 5835 5832 5830 5828 5825 5823 5822 5821 5820 5820 5818 5816 5815 5814 5813 5811 5809 5807 5805 5803 5802 5801 5799
5847 5847 5846 5846 5846 5847 5847 5847 5846 5845 5844 5843 5841 5840 5839 5837 5835 5833 5832 5830 5827 5825 5823 5821 5819 5817 5816 5815 5815 5814 5811 5810 5809 5808 5806 5804 5802 5800 5799 5798 5797 5794